STARLINK-2636 (48357 NORAD) Tracking and Keplerian Element Data

This shows tracking and keplerian element data for the satellite.

Feedback or suggestion? Click here.




ElementValue
Catalog48357
NameSTARLINK-2636
Epoch Orbit1380
Epoch Day214.61742333
Epoch Year2021
RAAN343.7457
Inclination53.0568
Eccentricity0.0001287
Argument of Perigee136.7993
Mean Anonmoly223.3097
Mean Motion15.06386465
Decay Rate-1.257E-05
L11 48357U 21038E 21214.61742333 -.00001257 00000-0 -65553-4 0 9995
L22 48357 53.0568 343.7457 0001287 136.7993 223.3097 15.06386465 13807

Live tracking and technical data element details for STARLINK-2636 (NORAD 48357). STARLINK-2636 can be tracked NOW for your location showing map with azimuth and elevation plus other details from your city location.

Track the satellite on the map from your city or location and see movement details for azimuth, elevation, latitude, longitude, range, height, and movement on the map or in text.







IsCatalogInMostPopularTable: catalog: 48357, numindb: 27
Update: records affected: 1



GetName: 48357 STARLINK-2636

Hit Count: updated at: Tue, 03 Aug 2021 19:23:48 GMT